Regional Weather Roundup
Issued by NWS

Home | Current Version | Previous Version | Text Only | Print | Product List | Glossary Off
Versions: 1 2 3 4 5 6 7 8 9 10 11 12 13 14 15 16 17 18 19 20 21 22 23 24 25 26 27

000
ASUS45 KTFX 212110
RWRMT
MONTANA REGIONAL WEATHER ROUNDUP
NATIONAL WEATHER SERVICE GREAT FALLS MT
300 PM MDT TUE MAR 21 2017

NOTE: "FAIR" INDICATES FEW OR NO CLOUDS BELOW 12000 FEET WITH NO
SIGNIFICANT WEATHER AND/OR OBSTRUCTIONS TO VISIBILITY.

MTZ001>007-043-212200-
WEST OF THE DIVIDE

CITY           SKY/WX    TMP DP  RH WIND       PRES   REMARKS
KALISPELL      CLOUDY    51  28  41 NW3       29.84F
MISSOULA       CLOUDY    52  36  54 S5        29.85F
BUTTE          CLOUDY    46  35  65 S16       29.88F
MULLAN PASS    LGT RAIN  34  33  96 S8        29.82F WCI  27
ANACONDA         N/A     50  39  66 W3        29.87F
DEER LODGE       N/A     50  37  62 E3        29.89F
EUREKA           N/A     43  28  56 W6        29.88F
HAMILTON         N/A     50  39  66 NE3       29.84F
PLAINS           N/A     52  31  44 CALM      29.86F
RONAN            N/A     50  31  48 NW5       29.90F
$$

MTZ008-052>055-212200-
SOUTHWEST MONTANA

CITY           SKY/WX    TMP DP  RH WIND       PRES   REMARKS
BOZEMAN        CLOUDY    47  35  63 NW3       29.93F
DILLON         CLOUDY    45  34  65 CALM      29.90F
W YELLOWSTONE  CLOUDY    45  36  70 E6        29.97F
ENNIS          MOSUNNY   43  36  75 VRB3      29.97F
THREE FORKS      N/A     49  41  74 CALM      29.93F
$$

MTZ009-010-012-014-046-048-049-054-212200-
EAST SLOPES AND CENTRAL MONTANA

CITY           SKY/WX    TMP DP  RH WIND       PRES   REMARKS
CUT BANK       MOSUNNY   46  28  49 S18G26    29.90F
GREAT FALLS    CLOUDY    53  30  41 SE8       29.91F
HELENA         PTSUNNY   50  35  56 CALM      29.91F
AUGUSTA          N/A     49  31  50 S13       29.88F
BOWMANS CRNR     N/A     49  31  50 S16       29.87F
CHOTEAU          N/A     50  30  46 SE10      29.91F
CONRAD           N/A     51  35  54 E13       29.94F
FAIRFIELD        N/A     51  29  42 S9        29.89F
POWER            N/A     50  29  45 SE8       29.90F
RAYNESFORD       N/A     50  29  44 E21G26    29.91F
$$

MTZ011-013-016-021-045-047-050-051-212200-
NORTH CENTRAL MONTANA

CITY           SKY/WX    TMP DP  RH WIND       PRES   REMARKS
HAVRE            N/A     48  30  49 SE18      29.99F
LEWISTOWN      SUNNY     42  30  62 E23G32    29.98F
N BAR RANCH    CLOUDY    32  30  93 SE13G21   30.07F WCI  22
CHINOOK          N/A     43  27  52 E21G30    30.05F
DENTON           N/A     47  31  52 SE10G21   29.94F
FORT BENTON      N/A     46  30  53 MISG      29.96F
GEYSER           N/A     50  30  46 SE17      29.93F
GRASS RANGE    PTSUNNY   38  31  77 E24       30.00F WCI  27
STANFORD         N/A     46  30  53 SE28      29.92F
WINIFRED         N/A     42  32  66 E25       29.98F
$$

MTZ017>020-022>027-061-062-212200-
NORTHEAST MONTANA

CITY           SKY/WX    TMP DP  RH WIND       PRES   REMARKS
GLASGOW        MOSUNNY   40  21  46 SE23G32   30.21F
JORDAN           N/A     38  29  70 SE20G28   30.17F WCI  28
SIDNEY         CLOUDY   N/A N/A N/A SE12      30.34F
WOLF POINT     MOSUNNY   42  18  37 E15       30.28F
MALTA          PTSUNNY   41  27  56 E21G30    30.16F
PLENTYWOOD       N/A     30  18  59 E15G23    30.34F WCI  19
POPLAR           N/A     36  18  48 E17       30.30F WCI  25
SCOBEY           N/A     33  14  45 E16       30.25F WCI  22
$$

MTZ028>42-056>058-212200-
SOUTHCENTRAL AND SOUTHEAST MONTANA

CITY           SKY/WX    TMP DP  RH WIND       PRES   REMARKS
BAKER          CLOUDY    32  23  69 SE26      30.27F WCI  18
BILLINGS       CLOUDY    37  35  92 NE7       30.07F WCI  32
LIVINGSTON     CLOUDY    36  30  79 E15       30.02F WCI  27
MILES CITY     CLOUDY    37  28  70 SE16      30.21F WCI  28
BIG TIMBER     CLOUDY    34  32  93 E10       30.06F WCI  26
EKALAKA          N/A     29  24  81 E23       30.15F WCI  15
FORSYTH          N/A     37  34  87 E17       30.16F WCI  28
HARLOWTON      CLOUDY    33  30  89 SE10      30.06F WCI  25
LAUREL           N/A     38  33  82 NE7       30.04F
$$

REGIONAL REPORTS...DAKOTAS

CITY           SKY/WX    TMP DP  RH WIND       PRES   REMARKS
WILLISTON      SUNNY     35  15  44 SE15      30.38F WCI  25
MINOT          SUNNY     23  12  62 E13       30.49F WCI  11
DICKINSON      CLOUDY    32  19  58 SE15G23   30.34F WCI  22
BEACH            N/A    N/A N/A N/A MISG        N/A
TIOGA            N/A     25  18  74 SE16G22   30.41F WCI  12
WATFORD CITY     N/A     32  18  55 E14G21    30.38F WCI  22
BISMARCK       MOSUNNY   29  15  56 E13       30.48F WCI  19
GRAND FORKS    PTSUNNY   23   6  48 N14       30.60F WCI  11
FARGO          MOSUNNY   26  12  55 N20G25    30.56F WCI  12
BUFFALO SD       N/A     30  25  81 SE20      30.23F WCI  17
RAPID CITY     FOG       30  29  96 E15       30.30F VSB<1/4 WCI  19
$$

REGIONAL REPORTS...WYOMING/IDAHO/WASHINGTON

CITY           SKY/WX    TMP DP  RH WIND       PRES   REMARKS
GILLETTE       CLOUDY    42  36  79 SE16      30.11F
SHERIDAN       CLOUDY    42  38  85 SE10      30.07F
BUFFALO WY     CLOUDY    42  39  89 S8        30.06F FOG
CODY           CLOUDY    43  36  76 SE5       30.03F
YELLOWSTONE LA   N/A     42  34  73 CALM      30.04F
IDAHO FALLS    PTSUNNY   67  31  26 S18       29.87F
SALMON         CLOUDY    54  39  58 N6        29.80F
BOISE          CLOUDY    60  42  51 W9        29.79F
SPOKANE        CLOUDY    45  39  79 NE10      29.78F
$$

REGIONAL REPORTS...ALBERTA

CITY           SKY/WX    TMP DP  RH WIND       PRES   REMARKS
EDMONTON       CLOUDY    34  18  51 SE23G31   29.94F WCI  22
CALGARY        CLOUDY    39  25  56 SE24      29.84F WCI  28
LETHBRIDGE     PTSUNNY   48  28  46 S18       29.90F
MEDICINE HAT   PTSUNNY   46  25  42 SE16G23   30.00F
WATERTON GATE    N/A     43  23  45 NE5         N/A
CARDSTON         N/A     48  28  46 S10G18      N/A
MILK RIVER       N/A     46  28  49 S25G32      N/A
ONEFOUR          N/A     41  25  52 E29G35      N/A
$$

REGIONAL REPORTS...SASKATCHEWAN

CITY           SKY/WX    TMP DP  RH WIND       PRES   REMARKS
SWIFT CURRENT  CLOUDY    36  19  51 SE26G32   30.16F WCI  23
REGINA         MOSUNNY   25  14  63 SE18G25   30.39F WCI  11
SASKATOON      PTSUNNY   30  14  51 SE20G28   30.34F WCI  18
CYPRESS HILLS    N/A     32  18  55 SE22G32     N/A  WCI  19
VAL MARIE        N/A     36  16  44 SE18G25     N/A  WCI  25
ASSINIBOIA       N/A     32  16  51 SE20G26     N/A  WCI  20
$$




USA.gov is the U.S. government's official web portal to all federal, state and local government web resources and services.